owner,sensor,date,latitude,longitude,vertical_datum,wind_speed,wind_to_direction,wind_speed_of_gust,qcFlag 
LUMCON,ioos:station:LUMCON:101:1,2019-10-01T00:00:00Z,29.2533,-90.6633,1.0,5.0,73.0,5.8,'11111222,11111222,11111222' 
LUMCON,ioos:station:LUMCON:101:1,2019-10-01T00:15:00Z,29.2533,-90.6633,1.0,4.6,69.0,5.1,'11111222,11111222,11111222' 
LUMCON,ioos:station:LUMCON:101:1,2019-10-01T00:30:00Z,29.2533,-90.6633,1.0,4.2,63.0,4.6,'11111222,11111222,11111222' 
LUMCON,ioos:station:LUMCON:101:1,2019-10-01T00:45:00Z,29.2533,-90.6633,1.0,6.3,77.0,6.8,'11111222,11111222,11111222' 
LUMCON,ioos:station:LUMCON:101:1,2019-10-01T01:00:00Z,29.2533,-90.6633,1.0,3.6,71.0,3.9,'11111222,11111222,11111222' 
LUMCON,ioos:station:LUMCON:101:1,2019-10-01T01:15:00Z,29.2533,-90.6633,1.0,6.0,72.0,6.3,'11111222,11111222,11111222' 
LUMCON,ioos:station:LUMCON:101:1,2019-10-01T01:30:00Z,29.2533,-90.6633,1.0,4.4,60.0,4.8,'11111222,11111222,11111222' 
LUMCON,ioos:station:LUMCON:101:1,2019-10-01T01:45:00Z,29.2533,-90.6633,1.0,3.5,59.0,3.9,'11111222,11111222,11111222' 
LUMCON,ioos:station:LUMCON:101:1,2019-10-01T02:00:00Z,29.2533,-90.6633,1.0,4.6,65.0,5.4,'11111222,11111222,11111222' 
LUMCON,ioos:station:LUMCON:101:1,2019-10-01T02:15:00Z,29.2533,-90.6633,1.0,4.3,43.0,5.2,'11111222,11111222,11111222' 
LUMCON,ioos:station:LUMCON:101:1,2019-10-01T02:30:00Z,29.2533,-90.6633,1.0,5.0,72.0,5.6,'11111222,11111222,11111222' 
LUMCON,ioos:station:LUMCON:101:1,2019-10-01T02:45:00Z,29.2533,-90.6633,1.0,5.4,58.0,5.8,'11111222,11111222,11111222' 
LUMCON,ioos:station:LUMCON:101:1,2019-10-01T03:00:00Z,29.2533,-90.6633,1.0,4.8,68.0,5.2,'11111222,11111222,11111222' 
LUMCON,ioos:station:LUMCON:101:1,2019-10-01T03:15:00Z,29.2533,-90.6633,1.0,5.9,78.0,7.1,'11111222,11111222,11111222' 
LUMCON,ioos:station:LUMCON:101:1,2019-10-01T03:30:00Z,29.2533,-90.6633,1.0,4.6,55.0,5.5,'11111222,11111222,11111222' 
LUMCON,ioos:station:LUMCON:101:1,2019-10-01T03:45:00Z,29.2533,-90.6633,1.0,5.2,76.0,6.4,'11111222,11111222,11111222' 
LUMCON,ioos:station:LUMCON:101:1,2019-10-01T04:00:00Z,29.2533,-90.6633,1.0,5.0,68.0,5.5,'11111222,11111222,11111222' 
LUMCON,ioos:station:LUMCON:101:1,2019-10-01T04:15:00Z,29.2533,-90.6633,1.0,5.9,55.0,6.5,'11111222,11111222,11111222' 
LUMCON,ioos:station:LUMCON:101:1,2019-10-01T04:30:00Z,29.2533,-90.6633,1.0,5.9,59.0,6.2,'11111222,11111222,11111222' 
LUMCON,ioos:station:LUMCON:101:1,2019-10-01T04:45:00Z,29.2533,-90.6633,1.0,3.3,84.0,3.6,'11111222,11111222,11111222' 
LUMCON,ioos:station:LUMCON:101:1,2019-10-01T05:00:00Z,29.2533,-90.6633,1.0,5.5,81.0,6.3,'11111222,11111222,11111222' 
LUMCON,ioos:station:LUMCON:101:1,2019-10-01T05:15:00Z,29.2533,-90.6633,1.0,2.3,63.0,2.5,'11111222,11111222,11111222' 
LUMCON,ioos:station:LUMCON:101:1,2019-10-01T05:30:00Z,29.2533,-90.6633,1.0,3.3,95.0,3.7,'11111222,11111222,11111222' 
LUMCON,ioos:station:LUMCON:101:1,2019-10-01T05:45:00Z,29.2533,-90.6633,1.0,4.4,87.0,4.5,'11111222,11111222,11111222' 
LUMCON,ioos:station:LUMCON:101:1,2019-10-01T06:00:00Z,29.2533,-90.6633,1.0,5.1,85.0,5.4,'11111222,11111222,11111222' 
LUMCON,ioos:station:LUMCON:101:1,2019-10-01T06:15:00Z,29.2533,-90.6633,1.0,3.4,84.0,3.6,'11111222,11111222,11111222' 
LUMCON,ioos:station:LUMCON:101:1,2019-10-01T06:30:00Z,29.2533,-90.6633,1.0,4.0,73.0,4.8,'11111222,11111222,11111222' 
LUMCON,ioos:station:LUMCON:101:1,2019-10-01T06:45:00Z,29.2533,-90.6633,1.0,5.2,90.0,5.6,'11111222,11111222,11111222' 
LUMCON,ioos:station:LUMCON:101:1,2019-10-01T07:00:00Z,29.2533,-90.6633,1.0,4.3,87.0,4.9,'11111222,11111222,11111222' 
LUMCON,ioos:station:LUMCON:101:1,2019-10-01T07:15:00Z,29.2533,-90.6633,1.0,3.3,79.0,3.6,'11111222,11111222,11111222' 
LUMCON,ioos:station:LUMCON:101:1,2019-10-01T07:30:00Z,29.2533,-90.6633,1.0,4.7,90.0,5.0,'11111222,11111222,11111222' 
LUMCON,ioos:station:LUMCON:101:1,2019-10-01T07:45:00Z,29.2533,-90.6633,1.0,3.8,80.0,4.1,'11111222,11111222,11111222' 
LUMCON,ioos:station:LUMCON:101:1,2019-10-01T08:00:00Z,29.2533,-90.6633,1.0,2.5,75.0,2.7,'11111222,11111222,11111222' 
LUMCON,ioos:station:LUMCON:101:1,2019-10-01T08:15:00Z,29.2533,-90.6633,1.0,3.3,69.0,3.6,'11111222,11111222,11111222' 
LUMCON,ioos:station:LUMCON:101:1,2019-10-01T08:30:00Z,29.2533,-90.6633,1.0,2.3,76.0,2.8,'11111222,11111222,11111222' 
LUMCON,ioos:station:LUMCON:101:1,2019-10-01T08:45:00Z,29.2533,-90.6633,1.0,3.5,85.0,3.6,'11111222,11111222,11111222' 
LUMCON,ioos:station:LUMCON:101:1,2019-10-01T09:00:00Z,29.2533,-90.6633,1.0,3.1,83.0,3.2,'11111222,11111222,11111222' 
LUMCON,ioos:station:LUMCON:101:1,2019-10-01T09:15:00Z,29.2533,-90.6633,1.0,3.2,86.0,3.6,'11111222,11111222,11111222' 
LUMCON,ioos:station:LUMCON:101:1,2019-10-01T09:30:00Z,29.2533,-90.6633,1.0,1.9,95.0,2.3,'11111222,11111222,11111222' 
LUMCON,ioos:station:LUMCON:101:1,2019-10-01T09:45:00Z,29.2533,-90.6633,1.0,3.3,86.0,3.4,'11111222,11111222,11111222' 
LUMCON,ioos:station:LUMCON:101:1,2019-10-01T10:00:00Z,29.2533,-90.6633,1.0,2.6,65.0,2.8,'11111222,11111222,11111222' 
LUMCON,ioos:station:LUMCON:101:1,2019-10-01T10:15:00Z,29.2533,-90.6633,1.0,3.0,72.0,4.1,'11111222,11111222,11111222' 
LUMCON,ioos:station:LUMCON:101:1,2019-10-01T10:30:00Z,29.2533,-90.6633,1.0,3.0,76.0,3.5,'11111222,11111222,11111222' 
LUMCON,ioos:station:LUMCON:101:1,2019-10-01T10:45:00Z,29.2533,-90.6633,1.0,2.2,80.0,2.4,'11111222,11111222,11111222' 
LUMCON,ioos:station:LUMCON:101:1,2019-10-01T11:00:00Z,29.2533,-90.6633,1.0,2.2,45.0,2.3,'11111222,11111222,11111222' 
LUMCON,ioos:station:LUMCON:101:1,2019-10-01T11:15:00Z,29.2533,-90.6633,1.0,2.2,78.0,2.4,'11111222,11111222,11111222' 
LUMCON,ioos:station:LUMCON:101:1,2019-10-01T11:30:00Z,29.2533,-90.6633,1.0,1.5,32.0,1.7,'11111222,11111222,11111222' 
LUMCON,ioos:station:LUMCON:101:1,2019-10-01T11:45:00Z,29.2533,-90.6633,1.0,2.3,58.0,2.5,'11111222,11111222,11111222' 
LUMCON,ioos:station:LUMCON:101:1,2019-10-01T12:00:00Z,29.2533,-90.6633,1.0,2.6,54.0,2.8,'11111222,11111222,11111222' 
LUMCON,ioos:station:LUMCON:101:1,2019-10-01T12:15:00Z,29.2533,-90.6633,1.0,1.6,45.0,1.8,'11111222,11111222,11111222' 
LUMCON,ioos:station:LUMCON:101:1,2019-10-01T12:30:00Z,29.2533,-90.6633,1.0,1.8,27.0,2.0,'11111222,11111222,11111222' 
LUMCON,ioos:station:LUMCON:101:1,2019-10-01T12:45:00Z,29.2533,-90.6633,1.0,2.1,38.0,2.1,'11111222,11111222,11111222' 
LUMCON,ioos:station:LUMCON:101:1,2019-10-01T13:00:00Z,29.2533,-90.6633,1.0,2.4,31.0,2.7,'11111222,11111222,11111222' 
LUMCON,ioos:station:LUMCON:101:1,2019-10-01T13:15:00Z,29.2533,-90.6633,1.0,2.0,45.0,2.5,'11111222,11111222,11111222' 
LUMCON,ioos:station:LUMCON:101:1,2019-10-01T13:30:00Z,29.2533,-90.6633,1.0,3.0,25.0,3.2,'11111222,11111222,11111222' 
LUMCON,ioos:station:LUMCON:101:1,2019-10-01T13:45:00Z,29.2533,-90.6633,1.0,4.3,28.0,4.6,'11111222,11111222,11111222' 
LUMCON,ioos:station:LUMCON:101:1,2019-10-01T14:00:00Z,29.2533,-90.6633,1.0,4.6,23.0,4.8,'11111222,11111222,11111222' 
LUMCON,ioos:station:LUMCON:101:1,2019-10-01T14:15:00Z,29.2533,-90.6633,1.0,4.6,18.0,5.1,'11111222,11111222,11111222' 
LUMCON,ioos:station:LUMCON:101:1,2019-10-01T14:30:00Z,29.2533,-90.6633,1.0,5.0,23.0,6.1,'11111222,11111222,11111222' 
LUMCON,ioos:station:LUMCON:101:1,2019-10-01T14:45:00Z,29.2533,-90.6633,1.0,4.5,16.0,5.1,'11111222,11111222,11111222' 
LUMCON,ioos:station:LUMCON:101:1,2019-10-01T15:00:00Z,29.2533,-90.6633,1.0,4.0,21.0,4.4,'11111222,11111222,11111222' 
LUMCON,ioos:station:LUMCON:101:1,2019-10-01T15:15:00Z,29.2533,-90.6633,1.0,3.5,34.0,3.7,'11111222,11111222,11111222' 
LUMCON,ioos:station:LUMCON:101:1,2019-10-01T15:30:00Z,29.2533,-90.6633,1.0,3.8,43.0,4.2,'11111222,11111222,11111222' 
LUMCON,ioos:station:LUMCON:101:1,2019-10-01T15:45:00Z,29.2533,-90.6633,1.0,5.9,42.0,6.2,'11111222,11111222,11111222' 
LUMCON,ioos:station:LUMCON:101:1,2019-10-01T16:00:00Z,29.2533,-90.6633,1.0,5.1,13.0,5.7,'11111222,11111222,11111222' 
LUMCON,ioos:station:LUMCON:101:1,2019-10-01T16:15:00Z,29.2533,-90.6633,1.0,4.7,54.0,5.2,'11111222,11111222,11111222' 
LUMCON,ioos:station:LUMCON:101:1,2019-10-01T16:30:00Z,29.2533,-90.6633,1.0,5.6,33.0,5.8,'11111222,11111222,11111222' 
LUMCON,ioos:station:LUMCON:101:1,2019-10-01T16:45:00Z,29.2533,-90.6633,1.0,4.3,53.0,4.5,'11111222,11111222,11111222' 
LUMCON,ioos:station:LUMCON:101:1,2019-10-01T17:00:00Z,29.2533,-90.6633,1.0,5.5,41.0,5.9,'11111222,11111222,11111222' 
LUMCON,ioos:station:LUMCON:101:1,2019-10-01T17:15:00Z,29.2533,-90.6633,1.0,4.0,55.0,4.5,'11111222,11111222,11111222' 
LUMCON,ioos:station:LUMCON:101:1,2019-10-01T17:30:00Z,29.2533,-90.6633,1.0,3.9,57.0,4.3,'11111222,11111222,11111222' 
LUMCON,ioos:station:LUMCON:101:1,2019-10-01T17:45:00Z,29.2533,-90.6633,1.0,6.0,42.0,6.4,'11111222,11111222,11111222' 
LUMCON,ioos:station:LUMCON:101:1,2019-10-01T18:00:00Z,29.2533,-90.6633,1.0,2.5,40.0,2.7,'11111222,11111222,11111222' 
LUMCON,ioos:station:LUMCON:101:1,2019-10-01T18:15:00Z,29.2533,-90.6633,1.0,4.1,72.0,4.7,'11111222,11111222,11111222' 
LUMCON,ioos:station:LUMCON:101:1,2019-10-01T18:30:00Z,29.2533,-90.6633,1.0,4.3,68.0,5.1,'11111222,11111222,11111222' 
LUMCON,ioos:station:LUMCON:101:1,2019-10-01T18:45:00Z,29.2533,-90.6633,1.0,5.1,80.0,5.7,'11111222,11111222,11111222' 
LUMCON,ioos:station:LUMCON:101:1,2019-10-01T19:00:00Z,29.2533,-90.6633,1.0,3.7,47.0,4.0,'11111222,11111222,11111222' 
LUMCON,ioos:station:LUMCON:101:1,2019-10-01T19:15:00Z,29.2533,-90.6633,1.0,3.3,82.0,3.8,'11111222,11111222,11111222' 
LUMCON,ioos:station:LUMCON:101:1,2019-10-01T19:30:00Z,29.2533,-90.6633,1.0,5.1,76.0,5.6,'11111222,11111222,11111222' 
LUMCON,ioos:station:LUMCON:101:1,2019-10-01T19:45:00Z,29.2533,-90.6633,1.0,5.2,71.0,5.5,'11111222,11111222,11111222' 
LUMCON,ioos:station:LUMCON:101:1,2019-10-01T20:00:00Z,29.2533,-90.6633,1.0,6.6,90.0,7.1,'11111222,11111222,11111222' 
LUMCON,ioos:station:LUMCON:101:1,2019-10-01T20:15:00Z,29.2533,-90.6633,1.0,6.0,73.0,6.7,'11111222,11111222,11111222' 
LUMCON,ioos:station:LUMCON:101:1,2019-10-01T20:30:00Z,29.2533,-90.6633,1.0,5.8,70.0,6.0,'11111222,11111222,11111222' 
LUMCON,ioos:station:LUMCON:101:1,2019-10-01T20:45:00Z,29.2533,-90.6633,1.0,4.8,88.0,5.1,'11111222,11111222,11111222' 
LUMCON,ioos:station:LUMCON:101:1,2019-10-01T21:00:00Z,29.2533,-90.6633,1.0,4.2,76.0,4.6,'11111222,11111222,11111222' 
LUMCON,ioos:station:LUMCON:101:1,2019-10-01T21:15:00Z,29.2533,-90.6633,1.0,4.4,77.0,4.7,'11111222,11111222,11111222' 
LUMCON,ioos:station:LUMCON:101:1,2019-10-01T21:30:00Z,29.2533,-90.6633,1.0,3.0,67.0,3.4,'11111222,11111222,11111222' 
LUMCON,ioos:station:LUMCON:101:1,2019-10-01T21:45:00Z,29.2533,-90.6633,1.0,6.6,48.0,7.4,'11111222,11111222,11111222' 
LUMCON,ioos:station:LUMCON:101:1,2019-10-01T22:00:00Z,29.2533,-90.6633,1.0,3.4,72.0,4.2,'11111222,11111222,11111222' 
LUMCON,ioos:station:LUMCON:101:1,2019-10-01T22:15:00Z,29.2533,-90.6633,1.0,5.3,67.0,5.6,'11111222,11111222,11111222' 
LUMCON,ioos:station:LUMCON:101:1,2019-10-01T22:30:00Z,29.2533,-90.6633,1.0,3.3,63.0,3.5,'11111222,11111222,11111222' 
LUMCON,ioos:station:LUMCON:101:1,2019-10-01T22:45:00Z,29.2533,-90.6633,1.0,6.4,74.0,7.2,'11111222,11111222,11111222' 
LUMCON,ioos:station:LUMCON:101:1,2019-10-01T23:00:00Z,29.2533,-90.6633,1.0,3.7,77.0,5.2,'11111222,11111222,11111222' 
LUMCON,ioos:station:LUMCON:101:1,2019-10-01T23:15:00Z,29.2533,-90.6633,1.0,3.5,83.0,4.1,'11111222,11111222,11111222' 
LUMCON,ioos:station:LUMCON:101:1,2019-10-01T23:30:00Z,29.2533,-90.6633,1.0,3.8,73.0,4.3,'11111222,11111222,11111222' 
LUMCON,ioos:station:LUMCON:101:1,2019-10-01T23:45:00Z,29.2533,-90.6633,1.0,2.7,69.0,3.1,'11111222,11111222,11111222' 
LUMCON,ioos:station:LUMCON:101:1,2019-10-02T00:00:00Z,29.2533,-90.6633,1.0,3.6,59.0,3.9,'11111222,11111222,11111222' 
LUMCON,ioos:station:LUMCON:101:1,2019-10-02T00:15:00Z,29.2533,-90.6633,1.0,3.4,46.0,3.7,'11111222,11111222,11111222' 
LUMCON,ioos:station:LUMCON:101:1,2019-10-02T00:30:00Z,29.2533,-90.6633,1.0,4.2,66.0,4.5,'11111222,11111222,11111222' 
LUMCON,ioos:station:LUMCON:101:1,2019-10-02T00:45:00Z,29.2533,-90.6633,1.0,3.7,56.0,4.1,'11111222,11111222,11111222' 
LUMCON,ioos:station:LUMCON:101:1,2019-10-02T01:00:00Z,29.2533,-90.6633,1.0,3.4,62.0,3.9,'11111222,11111222,11111222' 
LUMCON,ioos:station:LUMCON:101:1,2019-10-02T01:15:00Z,29.2533,-90.6633,1.0,2.8,73.0,3.1,'11111222,11111222,11111222' 
LUMCON,ioos:station:LUMCON:101:1,2019-10-02T01:30:00Z,29.2533,-90.6633,1.0,3.2,65.0,3.5,'11111222,11111222,11111222' 
LUMCON,ioos:station:LUMCON:101:1,2019-10-02T01:45:00Z,29.2533,-90.6633,1.0,2.3,80.0,2.7,'11111222,11111222,11111222' 
LUMCON,ioos:station:LUMCON:101:1,2019-10-02T02:00:00Z,29.2533,-90.6633,1.0,1.8,66.0,2.2,'11111222,11111222,11111222' 
LUMCON,ioos:station:LUMCON:101:1,2019-10-02T02:15:00Z,29.2533,-90.6633,1.0,4.0,56.0,4.1,'11111222,11111222,11111222' 
LUMCON,ioos:station:LUMCON:101:1,2019-10-02T02:30:00Z,29.2533,-90.6633,1.0,2.9,65.0,4.1,'11111222,11111222,11111222' 
LUMCON,ioos:station:LUMCON:101:1,2019-10-02T02:45:00Z,29.2533,-90.6633,1.0,1.5,56.0,1.6,'11111222,11111222,11111222' 
LUMCON,ioos:station:LUMCON:101:1,2019-10-02T03:00:00Z,29.2533,-90.6633,1.0,2.7,62.0,3.0,'11111222,11111222,11111222' 
LUMCON,ioos:station:LUMCON:101:1,2019-10-02T03:15:00Z,29.2533,-90.6633,1.0,2.5,51.0,2.8,'11111222,11111222,11111222' 
LUMCON,ioos:station:LUMCON:101:1,2019-10-02T03:30:00Z,29.2533,-90.6633,1.0,2.9,53.0,3.4,'11111222,11111222,11111222' 
LUMCON,ioos:station:LUMCON:101:1,2019-10-02T03:45:00Z,29.2533,-90.6633,1.0,3.0,47.0,3.8,'11111222,11111222,11111222' 
LUMCON,ioos:station:LUMCON:101:1,2019-10-02T04:00:00Z,29.2533,-90.6633,1.0,2.5,55.0,2.8,'11111222,11111222,11111222' 
LUMCON,ioos:station:LUMCON:101:1,2019-10-02T04:15:00Z,29.2533,-90.6633,1.0,2.3,62.0,2.6,'11111222,11111222,11111222' 
LUMCON,ioos:station:LUMCON:101:1,2019-10-02T04:30:00Z,29.2533,-90.6633,1.0,1.9,46.0,2.0,'11111222,11111222,11111222' 
LUMCON,ioos:station:LUMCON:101:1,2019-10-02T04:45:00Z,29.2533,-90.6633,1.0,3.1,47.0,3.6,'11111222,11111222,11111222' 
LUMCON,ioos:station:LUMCON:101:1,2019-10-02T05:00:00Z,29.2533,-90.6633,1.0,1.9,52.0,2.3,'11111222,11111222,11111222' 
LUMCON,ioos:station:LUMCON:101:1,2019-10-02T05:15:00Z,29.2533,-90.6633,1.0,2.1,66.0,2.3,'11111222,11111222,11111222' 
LUMCON,ioos:station:LUMCON:101:1,2019-10-02T05:30:00Z,29.2533,-90.6633,1.0,3.1,66.0,4.0,'11111222,11111222,11111222' 
LUMCON,ioos:station:LUMCON:101:1,2019-10-02T05:45:00Z,29.2533,-90.6633,1.0,3.0,68.0,3.3,'11111222,11111222,11111222' 
LUMCON,ioos:station:LUMCON:101:1,2019-10-02T06:00:00Z,29.2533,-90.6633,1.0,3.3,75.0,3.4,'11111222,11111222,11111222' 
LUMCON,ioos:station:LUMCON:101:1,2019-10-02T06:15:00Z,29.2533,-90.6633,1.0,2.8,74.0,3.2,'11111222,11111222,11111222' 
LUMCON,ioos:station:LUMCON:101:1,2019-10-02T06:30:00Z,29.2533,-90.6633,1.0,3.9,59.0,4.2,'11111222,11111222,11111222' 
LUMCON,ioos:station:LUMCON:101:1,2019-10-02T06:45:00Z,29.2533,-90.6633,1.0,4.1,66.0,4.5,'11111222,11111222,11111222' 
LUMCON,ioos:station:LUMCON:101:1,2019-10-02T07:00:00Z,29.2533,-90.6633,1.0,5.0,68.0,5.4,'11111222,11111222,11111222' 
LUMCON,ioos:station:LUMCON:101:1,2019-10-02T07:15:00Z,29.2533,-90.6633,1.0,4.7,73.0,4.8,'11111222,11111222,11111222' 
LUMCON,ioos:station:LUMCON:101:1,2019-10-02T07:30:00Z,29.2533,-90.6633,1.0,4.2,69.0,4.5,'11111222,11111222,11111222' 
LUMCON,ioos:station:LUMCON:101:1,2019-10-02T07:45:00Z,29.2533,-90.6633,1.0,3.8,78.0,4.5,'11111222,11111222,11111222' 
LUMCON,ioos:station:LUMCON:101:1,2019-10-02T08:00:00Z,29.2533,-90.6633,1.0,5.4,82.0,5.6,'11111222,11111222,11111222' 
LUMCON,ioos:station:LUMCON:101:1,2019-10-02T08:15:00Z,29.2533,-90.6633,1.0,4.7,85.0,5.3,'11111222,11111222,11111222' 
LUMCON,ioos:station:LUMCON:101:1,2019-10-02T08:30:00Z,29.2533,-90.6633,1.0,4.5,77.0,4.8,'11111222,11111222,11111222' 
LUMCON,ioos:station:LUMCON:101:1,2019-10-02T08:45:00Z,29.2533,-90.6633,1.0,4.6,87.0,4.8,'11111222,11111222,11111222' 
LUMCON,ioos:station:LUMCON:101:1,2019-10-02T09:00:00Z,29.2533,-90.6633,1.0,3.7,85.0,4.1,'11111222,11111222,11111222' 
LUMCON,ioos:station:LUMCON:101:1,2019-10-02T09:15:00Z,29.2533,-90.6633,1.0,3.4,89.0,4.0,'11111222,11111222,11111222' 
LUMCON,ioos:station:LUMCON:101:1,2019-10-02T09:30:00Z,29.2533,-90.6633,1.0,3.7,79.0,4.3,'11111222,11111222,11111222' 
LUMCON,ioos:station:LUMCON:101:1,2019-10-02T09:45:00Z,29.2533,-90.6633,1.0,4.9,86.0,5.1,'11111222,11111222,11111222' 
LUMCON,ioos:station:LUMCON:101:1,2019-10-02T10:00:00Z,29.2533,-90.6633,1.0,3.1,71.0,3.4,'11111222,11111222,11111222' 
LUMCON,ioos:station:LUMCON:101:1,2019-10-02T10:15:00Z,29.2533,-90.6633,1.0,3.2,73.0,3.5,'11111222,11111222,11111222' 
LUMCON,ioos:station:LUMCON:101:1,2019-10-02T10:30:00Z,29.2533,-90.6633,1.0,3.1,90.0,3.6,'11111222,11111222,11111222' 
LUMCON,ioos:station:LUMCON:101:1,2019-10-02T10:45:00Z,29.2533,-90.6633,1.0,1.3,78.0,1.4,'11111222,11111222,11111222' 
LUMCON,ioos:station:LUMCON:101:1,2019-10-02T11:00:00Z,29.2533,-90.6633,1.0,2.2,65.0,2.5,'11111222,11111222,11111222' 
LUMCON,ioos:station:LUMCON:101:1,2019-10-02T11:15:00Z,29.2533,-90.6633,1.0,2.0,74.0,2.4,'11111222,11111222,11111222' 
LUMCON,ioos:station:LUMCON:101:1,2019-10-02T11:30:00Z,29.2533,-90.6633,1.0,2.3,63.0,2.5,'11111222,11111222,11111222' 
LUMCON,ioos:station:LUMCON:101:1,2019-10-02T11:45:00Z,29.2533,-90.6633,1.0,1.3,60.0,1.6,'11111222,11111222,11111222' 
LUMCON,ioos:station:LUMCON:101:1,2019-10-02T12:00:00Z,29.2533,-90.6633,1.0,2.1,63.0,2.3,'11111222,11111222,11111222' 
LUMCON,ioos:station:LUMCON:101:1,2019-10-02T12:15:00Z,29.2533,-90.6633,1.0,2.2,52.0,2.7,'11111222,11111222,11111222' 
LUMCON,ioos:station:LUMCON:101:1,2019-10-02T12:30:00Z,29.2533,-90.6633,1.0,1.7,64.0,1.9,'11111222,11111222,11111222' 
LUMCON,ioos:station:LUMCON:101:1,2019-10-02T12:45:00Z,29.2533,-90.6633,1.0,2.0,42.0,2.2,'11111222,11111222,11111222' 
LUMCON,ioos:station:LUMCON:101:1,2019-10-02T13:00:00Z,29.2533,-90.6633,1.0,2.6,18.0,3.1,'11111222,11111222,11111222' 
LUMCON,ioos:station:LUMCON:101:1,2019-10-02T13:15:00Z,29.2533,-90.6633,1.0,1.5,29.0,1.6,'11111222,11111222,11111222' 
LUMCON,ioos:station:LUMCON:101:1,2019-10-02T13:30:00Z,29.2533,-90.6633,1.0,3.2,19.0,3.5,'11111222,11111222,11111222' 
LUMCON,ioos:station:LUMCON:101:1,2019-10-02T13:45:00Z,29.2533,-90.6633,1.0,3.3,30.0,3.4,'11111222,11111222,11111222' 
LUMCON,ioos:station:LUMCON:101:1,2019-10-02T14:00:00Z,29.2533,-90.6633,1.0,3.8,23.0,4.0,'11111222,11111222,11111222' 
LUMCON,ioos:station:LUMCON:101:1,2019-10-02T14:15:00Z,29.2533,-90.6633,1.0,3.9,28.0,4.4,'11111222,11111222,11111222' 
LUMCON,ioos:station:LUMCON:101:1,2019-10-02T14:30:00Z,29.2533,-90.6633,1.0,3.8,21.0,4.2,'11111222,11111222,11111222' 
LUMCON,ioos:station:LUMCON:101:1,2019-10-02T14:45:00Z,29.2533,-90.6633,1.0,3.0,33.0,3.3,'11111222,11111222,11111222' 
LUMCON,ioos:station:LUMCON:101:1,2019-10-02T15:00:00Z,29.2533,-90.6633,1.0,4.0,12.0,4.3,'11111222,11111222,11111222' 
LUMCON,ioos:station:LUMCON:101:1,2019-10-02T15:15:00Z,29.2533,-90.6633,1.0,4.2,61.0,4.6,'11111222,11111222,11111222' 
LUMCON,ioos:station:LUMCON:101:1,2019-10-02T15:30:00Z,29.2533,-90.6633,1.0,5.2,27.0,5.5,'11111222,11111222,11111222' 
LUMCON,ioos:station:LUMCON:101:1,2019-10-02T15:45:00Z,29.2533,-90.6633,1.0,5.1,36.0,5.3,'11111222,11111222,11111222' 
LUMCON,ioos:station:LUMCON:101:1,2019-10-02T16:00:00Z,29.2533,-90.6633,1.0,5.2,25.0,6.0,'11111222,11111222,11111222' 
LUMCON,ioos:station:LUMCON:101:1,2019-10-02T16:15:00Z,29.2533,-90.6633,1.0,4.4,30.0,4.9,'11111222,11111222,11111222' 
LUMCON,ioos:station:LUMCON:101:1,2019-10-02T16:30:00Z,29.2533,-90.6633,1.0,3.2,22.0,3.6,'11111222,11111222,11111222' 
LUMCON,ioos:station:LUMCON:101:1,2019-10-02T16:45:00Z,29.2533,-90.6633,1.0,3.6,62.0,4.1,'11111222,11111222,11111222' 
LUMCON,ioos:station:LUMCON:101:1,2019-10-02T17:00:00Z,29.2533,-90.6633,1.0,3.4,66.0,3.8,'11111222,11111222,11111222' 
LUMCON,ioos:station:LUMCON:101:1,2019-10-02T17:15:00Z,29.2533,-90.6633,1.0,5.2,37.0,5.5,'11111222,11111222,11111222' 
LUMCON,ioos:station:LUMCON:101:1,2019-10-02T17:30:00Z,29.2533,-90.6633,1.0,3.8,81.0,4.2,'11111222,11111222,11111222' 
LUMCON,ioos:station:LUMCON:101:1,2019-10-02T17:45:00Z,29.2533,-90.6633,1.0,3.7,43.0,3.9,'11111222,11111222,11111222' 
LUMCON,ioos:station:LUMCON:101:1,2019-10-02T18:00:00Z,29.2533,-90.6633,1.0,4.8,44.0,5.0,'11111222,11111222,11111222' 
LUMCON,ioos:station:LUMCON:101:1,2019-10-02T18:15:00Z,29.2533,-90.6633,1.0,2.6,66.0,3.0,'11111222,11111222,11111222' 
LUMCON,ioos:station:LUMCON:101:1,2019-10-02T18:30:00Z,29.2533,-90.6633,1.0,4.5,79.0,5.1,'11111222,11111222,11111222' 
LUMCON,ioos:station:LUMCON:101:1,2019-10-02T18:45:00Z,29.2533,-90.6633,1.0,3.8,58.0,3.9,'11111222,11111222,11111222' 
LUMCON,ioos:station:LUMCON:101:1,2019-10-02T19:00:00Z,29.2533,-90.6633,1.0,2.5,17.0,3.1,'11111222,11111222,11111222' 
LUMCON,ioos:station:LUMCON:101:1,2019-10-02T19:15:00Z,29.2533,-90.6633,1.0,5.5,71.0,6.3,'11111222,11111222,11111222' 
LUMCON,ioos:station:LUMCON:101:1,2019-10-02T19:30:00Z,29.2533,-90.6633,1.0,3.5,72.0,4.5,'11111222,11111222,11111222' 
LUMCON,ioos:station:LUMCON:101:1,2019-10-02T19:45:00Z,29.2533,-90.6633,1.0,4.6,81.0,4.9,'11111222,11111222,11111222' 
LUMCON,ioos:station:LUMCON:101:1,2019-10-02T20:00:00Z,29.2533,-90.6633,1.0,5.5,71.0,5.9,'11111222,11111222,11111222' 
LUMCON,ioos:station:LUMCON:101:1,2019-10-02T20:15:00Z,29.2533,-90.6633,1.0,6.1,67.0,6.4,'11111222,11111222,11111222' 
LUMCON,ioos:station:LUMCON:101:1,2019-10-02T20:30:00Z,29.2533,-90.6633,1.0,4.7,76.0,5.2,'11111222,11111222,11111222' 
LUMCON,ioos:station:LUMCON:101:1,2019-10-02T20:45:00Z,29.2533,-90.6633,1.0,6.6,68.0,7.1,'11111222,11111222,11111222' 
LUMCON,ioos:station:LUMCON:101:1,2019-10-02T21:00:00Z,29.2533,-90.6633,1.0,3.5,81.0,3.8,'11111222,11111222,11111222' 
LUMCON,ioos:station:LUMCON:101:1,2019-10-02T21:15:00Z,29.2533,-90.6633,1.0,5.3,70.0,5.7,'11111222,11111222,11111222' 
LUMCON,ioos:station:LUMCON:101:1,2019-10-02T21:30:00Z,29.2533,-90.6633,1.0,4.5,86.0,4.9,'11111222,11111222,11111222' 
LUMCON,ioos:station:LUMCON:101:1,2019-10-02T21:45:00Z,29.2533,-90.6633,1.0,3.4,57.0,4.7,'11111222,11111222,11111222' 
LUMCON,ioos:station:LUMCON:101:1,2019-10-02T22:00:00Z,29.2533,-90.6633,1.0,6.6,53.0,8.1,'11111222,11111222,11111222' 
LUMCON,ioos:station:LUMCON:101:1,2019-10-02T22:15:00Z,29.2533,-90.6633,1.0,8.1,69.0,8.6,'11111222,11111222,11111222' 
LUMCON,ioos:station:LUMCON:101:1,2019-10-02T22:30:00Z,29.2533,-90.6633,1.0,5.4,62.0,6.3,'11111222,11111222,11111222' 
LUMCON,ioos:station:LUMCON:101:1,2019-10-02T22:45:00Z,29.2533,-90.6633,1.0,5.2,85.0,6.1,'11111222,11111222,11111222' 
LUMCON,ioos:station:LUMCON:101:1,2019-10-02T23:00:00Z,29.2533,-90.6633,1.0,5.1,84.0,5.7,'11111222,11111222,11111222' 
LUMCON,ioos:station:LUMCON:101:1,2019-10-02T23:15:00Z,29.2533,-90.6633,1.0,4.9,78.0,5.4,'11111222,11111222,11111222' 
LUMCON,ioos:station:LUMCON:101:1,2019-10-02T23:30:00Z,29.2533,-90.6633,1.0,3.6,66.0,4.5,'11111222,11111222,11111222' 
LUMCON,ioos:station:LUMCON:101:1,2019-10-02T23:45:00Z,29.2533,-90.6633,1.0,3.8,73.0,6.2,'11111222,11111222,11111222' 
LUMCON,ioos:station:LUMCON:101:1,2019-10-03T00:00:00Z,29.2533,-90.6633,1.0,2.4,60.0,2.7,'11111222,11111222,11111222' 
LUMCON,ioos:station:LUMCON:101:1,2019-10-03T00:15:00Z,29.2533,-90.6633,1.0,4.5,54.0,4.9,'11111222,11111222,11111222' 
LUMCON,ioos:station:LUMCON:101:1,2019-10-03T00:30:00Z,29.2533,-90.6633,1.0,3.9,66.0,4.5,'11111222,11111222,11111222' 
LUMCON,ioos:station:LUMCON:101:1,2019-10-03T00:45:00Z,29.2533,-90.6633,1.0,3.4,82.0,3.6,'11111222,11111222,11111222' 
LUMCON,ioos:station:LUMCON:101:1,2019-10-03T01:00:00Z,29.2533,-90.6633,1.0,3.0,83.0,3.1,'11111222,11111222,11111222' 
LUMCON,ioos:station:LUMCON:101:1,2019-10-03T01:15:00Z,29.2533,-90.6633,1.0,6.0,86.0,6.6,'11111222,11111222,11111222' 
LUMCON,ioos:station:LUMCON:101:1,2019-10-03T01:30:00Z,29.2533,-90.6633,1.0,4.1,89.0,4.8,'11111222,11111222,11111222' 
LUMCON,ioos:station:LUMCON:101:1,2019-10-03T01:45:00Z,29.2533,-90.6633,1.0,3.3,86.0,3.9,'11111222,11111222,11111222' 
LUMCON,ioos:station:LUMCON:101:1,2019-10-03T02:00:00Z,29.2533,-90.6633,1.0,2.5,57.0,3.0,'11111222,11111222,11111222' 
LUMCON,ioos:station:LUMCON:101:1,2019-10-03T02:15:00Z,29.2533,-90.6633,1.0,5.4,77.0,6.1,'11111222,11111222,11111222' 